KVPSKTTS

Guest
Details From KVPS - Eglin Afb
To KTTS - Nasa Shuttle Landing Facility
Flight Number -
Tags Generated
Created
Modified
Stats Distance 323 nm / 598 km
Max Altitude 0 ft / 0 m
Waypoints 3
Social Downloads 0
Likes 0
Share VATSIM

Download

Looking for another format? Having issues loading an existing format? Contact us
Advertisement - Login to hide

Notes

Generated

Route

KVPS R0758 KTTS

ID Type Via Altitude Latitude Longitude Leg Dist Tot Dist Heading (true) Name
O KVPS APT - 0 ft / 0 m 30.47283˚ -86.51791˚ - 0 nm - -
R0758 FIX - 0 ft / 0 m 28.63275˚ -80.70606˚ 323 nm 323 nm 109° / 111° -
O KTTS APT - 0 ft / 0 m 28.63275˚ -80.70606˚ 0 nm 323 nm 0° / 180° -

Altitude Profile

Advertisement - Login to hide

Weather


0- 5 10 15 20 25 30 35+ Temperature / ° C

Clouds and Precipitation
Forecast for 2018-05-25 12:00 UTC. Updated 14 minutes ago

Ground ~20,000 ft ~40,000 ft Winds

KVPS

Details ICAO KVPS (VPS)
Name EGLIN AFB
Region United States
Timezone America/Chicago (UTC-5.0)
Stats Elevation 87 ft / 27 m (AMSL)
Location 30.483467° -86.525097°
Runways 2
Magnetic Variation 3.311° W

METAR

KVPS 251056Z 35003KT 10SM FEW210 SCT250 21/19 A2999 RMK AO2A SLP161 T02060194 $

Decode

TAF

TAF KVPS 250900Z 2509/2615 29005KT 9999 FEW020 SCT050 BKN250 QNH2996INS BECMG 2516/2517 18009KT 9999 VCSH SCT025 SCT140 BKN250 QNH2991INS TEMPO 2518/2602 20010G18KT 6000 -TSRA SCT015 BKN030CB BKN200 BECMG 2602/2603 20009KT 9999 NSW FEW035 SCT250 QNH2988INS BECMG 2608/2609 17009KT 9999 SCT025 SCT140 BKN250 QNH2986INS TX30/2518Z TN21/2511Z

Decode

Departure Runways

ID Width Length Bearing (true) Bearing (mag) Surface Threshold Offset Overrun Length
01 300 ft / 91 m 10,067 ft / 3,069 m 12.14° 15.45° Asphalt 0 ft / 0 m 750 ft / 229 m
12 300 ft / 91 m 11,999 ft / 3,657 m 119.79° 123.10° Asphalt 0 ft / 0 m 1,000 ft / 305 m
19 300 ft / 91 m 10,067 ft / 3,069 m 192.14° 195.45° Asphalt 0 ft / 0 m 500 ft / 152 m
30 300 ft / 91 m 11,999 ft / 3,657 m 299.81° 303.12° Asphalt 0 ft / 0 m 1,000 ft / 305 m

KTTS

Details ICAO KTTS
Name NASA Shuttle Landing Facility
Region United States
Timezone America/New_York (UTC-4.0)
Stats Elevation 10 ft / 3 m (AMSL)
Location 28.614891° -80.694371°
Runways 1
Magnetic Variation 6.854° W

METAR

KTTS 251056Z AUTO 00000KT 3SM BR CLR 21/21 A3003 RMK AO2 SLP173 T02130213

Decode

TAF

Not found

Destination Runways

ID Width Length Bearing (true) Bearing (mag) Surface Threshold Offset Overrun Length
15 300 ft / 91 m 15,035 ft / 4,583 m 150.12° 156.97° Concrete 0 ft / 0 m 1,000 ft / 305 m
33 300 ft / 91 m 15,035 ft / 4,583 m 330.13° 336.98° Concrete 0 ft / 0 m 1,000 ft / 305 m

Popular Alternatives